Wind_Speed
20 20 21 21 22 22 22 23 23 23 22 21 21 22 22 22 22 22 22 23 24 24 25 25 26 27 27 28 28 28 29 29 30 31 32 32 34 34
23 23 24 24 25 25 26 26 26 26 26 25 23 23 23 24 24 25 25 25 26 26 26 27 27 28 29 30 30 31 31 31 32 33 34 34 34 35
25 26 27 27 27 28 28 28 28 28 28 28 27 26 25 26 26 25 26 26 26 27 27 28 28 29 30 30 31 32 33 33 34 35 35 36 36 36
28 28 29 29 30 30 30 30 30 30 30 30 30 30 29 28 28 28 28 28 28 29 29 29 29 29 30 31 32 32 33 34 35 36 36 37 38 39
30 30 30 31 31 32 32 32 33 33 33 32 32 33 32 32 31 31 31 31 31 31 31 31 31 32 32 32 33 33 34 35 35 36 37 38 39 40
32 32 32 33 34 34 34 35 36 36 36 35 35 35 35 34 34 33 33 33 33 34 33 33 33 34 34 35 34 34 35 35 36 37 38 39 39 40
34 34 35 36 37 37 38 38 38 39 39 39 39 39 39 38 38 37 37 36 36 37 36 35 35 34 35 36 36 36 36 37 37 37 38 39 39 40
37 38 39 39 40 40 41 41 42 42 43 43 43 42 42 42 42 41 41 40 39 39 39 37 37 37 37 36 36 37 37 37 38 38 38 39 40 40
40 41 42 43 44 44 44 44 45 46 46 47 47 46 46 45 45 44 43 43 41 41 41 39 39 39 39 39 38 37 38 38 38 38 39 39 40 41
44 45 46 46 47 48 48 47 47 48 49 50 50 49 49 49 49 48 47 46 44 43 44 43 42 41 41 40 40 39 39 39 39 39 39 39 40 41
48 49 49 50 51 52 53 52 52 52 52 53 53 53 52 52 52 52 50 49 47 46 46 45 44 44 43 42 41 41 40 40 40 40 40 40 40 41
51 52 54 55 56 56 57 57 57 57 57 58 57 56 55 55 54 54 54 53 52 50 49 49 48 47 45 44 44 43 42 41 41 41 41 41 41 41
56 57 59 60 61 62 62 63 63 63 64 64 63 62 61 60 59 58 57 57 56 54 52 53 51 50 49 47 46 45 45 44 43 42 42 42 42 42
61 63 64 65 66 67 67 68 68 69 69 69 68 67 66 65 64 63 62 61 59 58 56 56 55 53 51 50 48 46 46 46 45 43 43 43 43 43
66 68 69 70 71 71 71 72 73 73 73 73 72 71 70 69 68 67 66 64 63 61 59 57 57 55 54 52 50 49 48 46 46 45 45 44 43 43
71 71 72 73 74 74 74 73 73 73 73 73 72 71 71 70 69 68 67 66 65 63 60 59 58 56 55 54 52 50 48 47 47 47 46 45 44 44
73 73 73 72 72 71 71 71 71 70 70 70 69 69 69 69 68 66 66 66 64 63 61 59 57 56 55 54 53 51 50 48 47 46 46 45 44 44
70 69 69 68 67 66 65 65 64 64 64 64 64 63 63 62 62 62 62 62 61 60 59 58 57 56 55 53 52 50 49 48 47 46 46 45 44 43
64 63 62 61 60 59 58 57 57 56 57 56 56 55 55 55 55 56 57 57 56 56 56 56 55 55 55 52 49 50 48 47 46 45 45 44 44 43
56 54 53 52 51 50 50 50 49 48 48 47 48 48 48 48 48 49 50 52 52 52 52 52 52 52 52 50 48 48 47 45 44 44 44 44 43 43
47 46 45 44 43 42 42 41 41 40 40 40 41 41 42 43 44 44 44 45 46 47 47 47 48 49 49 48 47 45 44 44 43 43 44 43 42 41
39 37 36 35 35 34 33 33 33 32 33 33 33 34 35 35 36 37 38 39 40 42 43 43 43 44 44 45 43 42 42 42 42 42 42 42 41 40
31 30 29 29 28 28 27 27 26 26 26 26 26 27 27 29 30 30 32 33 35 37 37 38 38 39 40 40 40 40 40 40 40 41 41 40 40 39
Wind_Direction
293 294 294 295 295 295 296 296 296 295 294 294 293 294 294 294 293 290 287 285 283 281 278 275 273 272 270 268 266 264 262 261 260 258 258 257 255 253
293 293 293 292 292 292 292 292 293 293 292 292 291 290 289 289 289 288 287 285 283 282 279 276 273 272 272 270 268 267 265 263 261 260 259 258 258 256
291 291 292 292 291 290 290 290 290 290 289 290 290 289 288 287 286 285 285 284 283 282 280 278 276 274 272 271 269 268 267 265 264 262 261 260 259 258
289 289 290 290 290 290 290 289 288 287 286 286 287 287 286 285 285 285 283 282 281 280 280 279 277 275 273 272 270 269 268 267 266 264 263 261 259 258
287 288 288 288 288 287 287 287 286 285 284 284 284 284 285 285 284 283 282 281 280 278 278 277 276 275 274 273 272 271 269 268 267 266 265 263 262 260
286 286 286 286 286 285 284 284 284 283 282 282 282 282 283 283 283 282 281 281 280 278 277 276 275 275 275 273 272 271 270 269 268 267 266 264 263 262
285 285 285 285 285 283 283 283 282 282 282 282 282 282 282 282 281 281 280 280 279 278 277 277 275 274 274 274 273 272 271 270 269 268 267 265 264 263
285 284 285 285 284 283 282 282 281 281 280 280 280 281 281 281 281 280 279 278 278 277 276 275 275 274 273 272 272 272 272 271 270 269 267 266 265 264
286 285 285 284 284 283 282 280 280 281 281 280 280 280 280 279 279 279 278 278 278 277 276 275 274 274 273 273 272 271 271 271 271 270 268 267 266 265
287 287 286 285 285 284 283 282 280 280 280 280 280 279 279 278 278 278 277 277 277 277 276 275 274 273 273 272 272 271 270 270 270 270 270 269 267 266
288 288 287 286 285 284 284 283 281 281 279 278 277 277 277 277 277 277 276 276 275 275 275 274 274 273 273 272 272 271 271 270 270 270 269 269 269 267
288 288 287 286 285 285 284 283 282 280 279 278 278 276 275 274 274 275 275 275 275 274 273 273 272 272 271 272 272 272 271 271 270 270 270 270 269 268
288 287 287 286 285 285 284 283 282 280 279 278 277 276 275 274 273 273 273 273 273 273 272 272 272 271 271 270 270 271 271 270 269 270 270 270 269 269
288 287 287 287 286 285 284 283 282 280 279 278 277 275 274 273 272 272 271 271 271 271 271 270 270 270 270 270 270 270 270 270 269 268 268 269 269 269
288 288 287 287 286 285 284 283 282 281 279 278 276 275 274 272 271 270 270 269 268 268 267 267 268 269 269 269 269 269 269 268 268 268 267 267 267 268
289 288 287 287 286 285 283 282 281 280 279 278 276 275 273 271 270 268 267 267 266 265 264 263 264 266 267 268 268 268 268 268 267 267 267 267 267 267
290 289 288 287 286 284 283 282 281 280 278 277 275 274 272 270 268 266 265 264 263 262 261 260 261 263 264 264 265 266 267 266 266 266 266 266 265 266
292 291 290 288 287 286 284 283 281 279 278 276 275 273 271 269 266 263 263 261 260 259 258 257 258 259 259 260 262 264 264 264 264 264 266 266 265 264
292 292 291 290 289 287 286 284 283 281 279 277 275 273 270 267 264 261 260 258 256 256 255 255 254 255 255 256 258 260 261 262 262 263 264 264 263 262
294 293 293 292 291 289 288 287 285 283 280 278 276 273 269 266 264 261 259 257 254 253 252 252 252 252 253 254 254 256 257 259 260 262 263 262 262 262
297 296 296 295 294 292 291 290 288 286 284 281 277 273 270 267 264 261 259 257 254 250 248 248 249 249 250 250 251 252 253 256 259 261 261 261 261 261
301 301 300 300 299 297 295 293 292 291 288 285 281 277 274 271 267 261 259 256 253 250 249 246 246 247 247 247 249 250 253 256 258 258 259 259 260 260
304 305 306 305 305 304 302 298 297 297 294 290 286 281 276 272 268 262 259 255 251 248 246 244 243 244 246 248 248 249 252 255 256 257 257 258 257 257
Height
5870 5870 5869 5868 5867 5866 5865 5864 5863 5862 5861 5861 5860 5858 5857 5856 5855 5854 5854 5853 5853 5853 5853 5853 5853 5853 5854 5855 5856 5856 5857 5858 5859 5861 5862 5864 5865 5867
5866 5865 5864 5863 5862 5861 5859 5858 5857 5856 5855 5855 5854 5853 5852 5850 5850 5848 5848 5847 5846 5846 5846 5846 5846 5846 5846 5847 5847 5848 5849 5850 5851 5852 5854 5855 5857 5858
5859 5858 5857 5856 5855 5854 5853 5852 5851 5850 5849 5848 5847 5846 5846 5844 5843 5842 5841 5840 5840 5839 5839 5838 5838 5838 5838 5839 5839 5840 5840 5841 5842 5843 5844 5846 5848 5849
5853 5852 5851 5849 5848 5847 5846 5845 5844 5843 5842 5841 5839 5839 5838 5837 5836 5835 5834 5833 5833 5832 5831 5830 5830 5830 5830 5830 5830 5831 5831 5832 5833 5834 5835 5836 5837 5839
5846 5845 5843 5842 5841 5839 5838 5837 5836 5835 5834 5833 5832 5830 5830 5829 5828 5827 5826 5825 5824 5824 5823 5822 5822 5821 5821 5821 5821 5822 5822 5822 5823 5823 5824 5825 5827 5828
5837 5836 5835 5834 5832 5831 5830 5828 5827 5825 5824 5824 5823 5822 5821 5819 5819 5818 5817 5816 5815 5814 5814 5814 5813 5812 5812 5811 5812 5812 5812 5812 5812 5813 5813 5814 5816 5817
5828 5827 5826 5824 5823 5821 5820 5819 5817 5816 5815 5814 5813 5812 5811 5809 5809 5808 5807 5806 5805 5804 5804 5803 5803 5803 5802 5801 5801 5801 5801 5801 5802 5802 5803 5803 5804 5805
5818 5817 5815 5814 5812 5811 5809 5807 5806 5805 5804 5802 5802 5801 5800 5798 5797 5796 5795 5795 5795 5794 5793 5793 5792 5792 5791 5791 5791 5790 5790 5790 5790 5791 5791 5792 5793 5794
5806 5805 5803 5802 5800 5799 5797 5795 5794 5792 5791 5789 5789 5788 5787 5785 5784 5783 5782 5782 5782 5781 5780 5781 5781 5780 5780 5779 5780 5780 5779 5779 5779 5779 5780 5780 5781 5782
5793 5791 5790 5788 5786 5784 5783 5782 5780 5779 5777 5775 5774 5774 5772 5771 5769 5769 5768 5768 5769 5768 5767 5768 5768 5768 5767 5767 5767 5767 5767 5767 5767 5767 5768 5768 5769 5770
5779 5777 5775 5773 5771 5768 5767 5766 5765 5763 5761 5759 5758 5758 5757 5756 5754 5753 5753 5753 5754 5754 5753 5753 5754 5753 5754 5754 5754 5754 5755 5755 5755 5755 5755 5756 5756 5757
5765 5762 5759 5756 5754 5752 5750 5749 5747 5746 5743 5742 5741 5741 5740 5740 5738 5737 5736 5736 5737 5739 5739 5738 5739 5739 5740 5741 5740 5741 5741 5742 5742 5742 5742 5743 5743 5744
5749 5746 5742 5739 5737 5734 5731 5729 5727 5725 5723 5722 5721 5721 5721 5721 5721 5720 5719 5718 5719 5721 5722 5721 5722 5722 5724 5726 5726 5726 5727 5728 5728 5729 5729 5729 5729 5730
5731 5727 5724 5720 5717 5713 5710 5707 5704 5701 5700 5700 5699 5699 5699 5700 5699 5699 5699 5700 5701 5702 5703 5703 5704 5705 5706 5708 5710 5711 5711 5712 5713 5715 5715 5715 5716 5716
5711 5707 5703 5699 5694 5691 5687 5683 5680 5677 5675 5674 5674 5675 5675 5675 5675 5676 5677 5678 5679 5682 5684 5684 5685 5687 5688 5690 5693 5694 5696 5697 5698 5699 5700 5701 5702 5703
5689 5685 5680 5675 5670 5666 5663 5659 5655 5652 5649 5648 5648 5648 5648 5649 5650 5651 5653 5655 5656 5660 5663 5665 5666 5668 5670 5672 5674 5677 5679 5681 5682 5683 5684 5686 5687 5688
5665 5661 5656 5651 5646 5641 5637 5634 5631 5627 5624 5623 5621 5621 5622 5622 5624 5626 5628 5630 5632 5637 5641 5644 5646 5648 5651 5653 5656 5659 5662 5664 5666 5667 5668 5670 5672 5673
5640 5636 5631 5626 5621 5617 5613 5610 5606 5603 5600 5598 5596 5596 5596 5597 5599 5601 5603 5605 5609 5614 5618 5623 5626 5628 5631 5635 5639 5642 5644 5647 5649 5651 5652 5654 5657 5659
5619 5614 5608 5604 5599 5594 5590 5587 5584 5581 5578 5575 5574 5573 5573 5574 5575 5578 5580 5583 5587 5592 5597 5602 5606 5609 5612 5618 5624 5625 5628 5631 5632 5635 5637 5639 5642 5644
5599 5594 5589 5585 5580 5575 5571 5567 5564 5561 5559 5557 5555 5554 5554 5554 5555 5558 5561 5563 5567 5572 5577 5582 5587 5591 5595 5601 5605 5609 5611 5614 5617 5620 5622 5624 5626 5628
5583 5578 5573 5568 5564 5560 5556 5552 5548 5545 5543 5540 5539 5538 5537 5538 5539 5541 5543 5546 5550 5554 5559 5565 5571 5575 5579 5583 5587 5592 5596 5599 5602 5604 5607 5609 5612 5614
5570 5565 5561 5556 5551 5547 5543 5540 5536 5533 5530 5528 5526 5525 5524 5524 5525 5527 5529 5532 5535 5539 5544 5550 5555 5559 5563 5568 5573 5578 5582 5584 5587 5590 5593 5596 5597 5600
5560 5556 5551 5547 5542 5538 5534 5531 5527 5524 5521 5518 5516 5515 5514 5514 5514 5515 5517 5520 5523 5527 5531 5536 5542 5546 5551 5555 5559 5564 5567 5570 5573 5576 5580 5582 5585 5587